Location: Oberstdorf
(47.4188°N, 10.2969°E)
Time: 00:53:23
(UTC+01:00)

Tiangong 2 - Visible Passes

Search period start: 25 November 2017 00:00
Search period end: 05 December 2017 00:00
Orbit: 386 x 392 km, 42.8° (Epoch: 24 November)

Date Brightness Start Highest point End Pass type
(mag) Time Alt. Az. Time Alt. Az. Time Alt. Az.
27 Nov 3.9 06:49:45 10° SSW 06:52:02 18° SSE 06:54:20 10° ESE visible
28 Nov 4.0 05:52:30 10° S 05:54:02 13° SSE 05:55:34 10° SE visible
29 Nov 3.2 06:29:28 10° SW 06:32:09 25° SSE 06:34:51 10° ESE visible
30 Nov 3.4 05:33:20 17° S 05:34:05 19° SSE 05:36:25 10° ESE visible
01 Dec 2.6 06:10:23 17° SW 06:12:16 31° S 06:15:09 10° ESE visible
02 Dec 3.4 05:15:00 22° SE 05:15:00 22° SE 05:16:50 10° ESE visible
02 Dec 2.4 06:47:35 10° WSW 06:50:33 35° S 06:53:31 10° ESE visible
03 Dec 2.2 05:51:50 32° SSW 05:52:21 35° S 05:55:19 10° ESE visible
04 Dec 4.2 04:56:18 15° ESE 04:56:18 15° ESE 04:57:02 10° ESE visible
04 Dec 2.4 06:28:36 16° WSW 06:30:37 32° S 06:33:31 10° ESE visible
